Location: Chequamegon National Forest
(46.1070°N, 90.8420°W)
Time: 22:39:47
(UTC-05:00)

ISS - All Passes

Search period start: 25 June 2017 00:00
Search period end: 05 July 2017 00:00
Orbit: 401 x 408 km, 51.6° (Epoch: 26 June)

Date Brightness Start Highest point End Pass type
(mag) Time Alt. Az. Time Alt. Az. Time Alt. Az.
25 Jun - 09:19:21 10° SSW 09:22:23 36° SE 09:25:26 10° ENE daylight
25 Jun - 10:55:37 10° W 10:58:49 47° NNW 11:02:02 10° ENE daylight
25 Jun - 12:32:49 10° WNW 12:35:47 30° N 12:38:45 10° ENE daylight
25 Jun - 14:09:28 10° WNW 14:12:43 54° NNE 14:15:58 10° E daylight
25 Jun - 15:46:09 10° WNW 15:49:05 29° SW 15:52:00 10° SSE daylight
26 Jun - 08:27:49 10° S 08:30:22 21° SE 08:32:56 10° E daylight
26 Jun - 10:03:19 10° WSW 10:06:36 69° NNW 10:09:52 10° ENE daylight
26 Jun - 11:40:28 10° WNW 11:43:27 30° N 11:46:26 10° ENE daylight
26 Jun - 13:17:18 10° WNW 13:20:27 40° NNE 13:23:35 10° E daylight
26 Jun - 14:53:48 10° WNW 14:57:01 50° SW 15:00:13 10° SE daylight
27 Jun - 07:37:01 10° SSE 07:38:25 12° SE 07:39:49 10° ESE daylight
27 Jun - 09:11:07 10° SW 09:14:24 76° SSE 09:17:41 10° ENE daylight
27 Jun - 10:48:03 10° WNW 10:51:06 34° N 10:54:10 10° ENE daylight
27 Jun - 12:25:05 10° WNW 12:28:07 33° N 12:31:10 10° ENE daylight
27 Jun - 14:01:33 10° WNW 14:04:52 85° SSW 14:08:10 10° ESE daylight
27 Jun - 15:39:04 10° W 15:40:55 14° SW 15:42:46 10° SSW daylight
28 Jun - 08:19:08 10° SW 08:22:15 44° SE 08:25:25 10° ENE daylight
28 Jun - 09:55:37 10° W 09:58:46 42° NNW 10:01:57 10° ENE daylight
28 Jun - 11:32:48 10° WNW 11:35:46 30° N 11:38:44 10° ENE daylight
28 Jun - 13:09:22 10° WNW 13:12:39 62° NNE 13:15:56 10° ESE daylight
28 Jun - 14:46:12 10° W 14:48:56 24° SW 14:51:39 10° SSE daylight
29 Jun - 07:27:25 10° SSW 07:30:11 25° SE 07:32:57 10° E daylight
29 Jun - 09:03:14 10° WSW 09:06:29 59° NNW 09:09:45 10° ENE daylight
29 Jun - 10:40:25 10° WNW 10:43:23 30° N 10:46:21 10° ENE daylight
29 Jun - 12:17:11 10° WNW 12:20:21 44° NNE 12:23:32 10° E daylight
29 Jun - 13:53:43 10° WNW 13:56:51 41° SW 13:59:59 10° SE daylight
30 Jun - 06:36:13 10° S 06:38:10 15° SE 06:40:07 10° E daylight
30 Jun - 08:10:57 10° WSW 08:14:14 90° SSE 08:17:31 10° ENE daylight
30 Jun - 09:47:59 10° WNW 09:50:59 32° N 09:54:01 10° ENE daylight
30 Jun - 11:24:56 10° WNW 11:28:00 35° NNE 11:31:05 10° E daylight
30 Jun - 13:01:24 10° WNW 13:04:42 72° SSW 13:07:58 10° SE daylight
30 Jun - 14:39:28 10° WSW 14:40:39 12° SW 14:41:50 10° SSW daylight
01 Jul - 07:18:50 10° SW 07:22:02 53° SSE 07:25:15 10° ENE daylight
01 Jul - 08:55:31 10° W 08:58:37 39° NNW 09:01:45 10° ENE daylight
01 Jul - 10:32:38 10° WNW 10:35:37 30° N 10:38:36 10° ENE daylight
01 Jul - 12:09:10 10° WNW 12:12:27 72° NNE 12:15:45 10° ESE daylight
01 Jul - 13:46:09 10° W 13:48:39 20° SW 13:51:08 10° S daylight
02 Jul - 06:26:58 10° SSW 06:29:53 31° SE 06:32:50 10° ENE daylight
02 Jul - 08:03:03 10° W 08:06:16 52° NNW 08:09:30 10° ENE daylight
02 Jul - 09:40:15 10° WNW 09:43:12 29° N 09:46:09 10° ENE daylight
02 Jul - 11:16:56 10° WNW 11:20:09 49° NNE 11:23:22 10° E daylight
02 Jul - 12:53:32 10° WNW 12:56:34 34° SW 12:59:35 10° SSE daylight
03 Jul - 05:35:30 10° S 05:37:49 18° SE 05:40:08 10° E daylight
03 Jul - 07:10:41 10° WSW 07:13:57 78° NNW 07:17:15 10° ENE daylight
03 Jul - 08:47:47 10° WNW 08:50:46 31° N 08:53:46 10° ENE daylight
03 Jul - 10:24:40 10° WNW 10:27:47 37° NNE 10:30:53 10° E daylight
03 Jul - 12:01:08 10° WNW 12:04:24 59° SSW 12:07:38 10° SE daylight
04 Jul - 04:45:20 10° SE 04:45:48 10° SE 04:46:14 10° ESE daylight
04 Jul - 06:18:28 10° SW 06:21:42 65° SSE 06:24:58 10° ENE daylight
04 Jul - 07:55:17 10° W 07:58:21 36° NNW 08:01:26 10° ENE daylight
04 Jul - 09:32:21 10° WNW 09:35:21 32° N 09:38:22 10° ENE daylight
04 Jul - 11:08:50 10° WNW 11:12:09 84° NNE 11:15:26 10° ESE daylight
04 Jul - 12:46:04 10° W 12:48:15 17° SW 12:50:26 10° S daylight
